sat.trackr.live / text

‹ back to catalog

UNKNOWN

NORAD 81052

UNKNOWN UNKNOWN UNKNOWN

§ Identity

Operator
Country
Launch date
Launch site
Launch vehicle
Mass (kg)
RCS (m²)

External: N2YO · Heavens-Above

§ Orbital elements

Epoch: 2026-09-16T18:00:57.197664Z

Period
103.92 min
Inclination
65.7707°
Eccentricity
0.0546943
Mean motion
13.85666525 rev/d
Perigee alt
543.4 km
Apogee alt
1,344.3 km
Semi-major
7,322.0 km
B*
2.0926e-3
RAAN
45.2341°
Arg perigee
173.2315°
Mean anomaly
187.6552°
Rev number
63,880

§ Raw data

UNKNOWN1 81052U          26259.75066201  .00007825  00000+0  20926-2 0  99992 81052  65.7707  45.2341 0546943 173.2315 187.6552 13.85666525638808

JSON: /api/v1/satellites/81052 · /tle

For live sub-satellite position, see the globe view (requires WebGL).

§ Visibility from observer

Set your observer location to see the next 7 days of passes ≥ 10°. The values pass through the URL so the page stays shareable.

No JS? Fill the form by hand. The geolocation button needs JavaScript.